TimeCEST,TemperatureF,Dew PointF,Humidity,Sea Level PressureIn,VisibilityMPH,Wind Direction,Wind SpeedMPH,Gust SpeedMPH,PrecipitationIn,Events,Conditions,WindDirDegrees,DateUTC
12:00 AM,69.8,64.4,83,30.09,-9999.0,SSW,3.5,-,N/A,,Clear,200,2012-10-05 22:00:00
12:30 AM,68.0,64.4,88,30.09,-9999.0,Variable,1.2,-,N/A,,Clear,0,2012-10-05 22:30:00
1:00 AM,68.0,64.4,88,30.09,-9999.0,Variable,2.3,-,N/A,,Clear,0,2012-10-05 23:00:00
2:00 AM,68.0,64.4,88,30.09,3.1,WSW,1.2,-,N/A,,Scattered Clouds,250,2012-10-06 00:00:00
4:30 AM,68.0,64.4,88,30.09,3.7,Variable,2.3,-,N/A,,Mostly Cloudy,0,2012-10-06 02:30:00
5:00 AM,68.0,64.4,88,30.09,3.7,Variable,2.3,-,N/A,,Mostly Cloudy,0,2012-10-06 03:00:00
5:30 AM,68.0,64.4,88,30.09,4.3,WSW,2.3,-,N/A,,Mostly Cloudy,240,2012-10-06 03:30:00
6:00 AM,66.2,64.4,94,30.09,3.7,South,1.2,-,N/A,,Scattered Clouds,180,2012-10-06 04:00:00
6:30 AM,66.2,64.4,94,30.09,3.1,South,1.2,-,N/A,,Scattered Clouds,180,2012-10-06 04:30:00
7:00 AM,66.2,64.4,94,30.09,2.5,Variable,1.2,-,N/A,,Scattered Clouds,0,2012-10-06 05:00:00
7:30 AM,66.2,64.4,94,30.09,2.5,South,2.3,-,N/A,,Scattered Clouds,180,2012-10-06 05:30:00
8:00 AM,66.2,64.4,94,30.12,2.5,Variable,1.2,-,N/A,,Scattered Clouds,0,2012-10-06 06:00:00
8:30 AM,66.2,64.4,94,30.12,1.9,Calm,Calm,-,N/A,,Mostly Cloudy,0,2012-10-06 06:30:00
9:00 AM,66.2,64.4,94,30.12,1.9,Calm,Calm,-,N/A,,Scattered Clouds,0,2012-10-06 07:00:00
9:30 AM,66.2,64.4,94,30.12,1.9,Calm,Calm,-,N/A,,Partly Cloudy,0,2012-10-06 07:30:00
10:00 AM,68.0,66.2,94,30.15,2.5,Calm,Calm,-,N/A,,Scattered Clouds,0,2012-10-06 08:00:00
10:30 AM,69.8,64.4,83,30.15,3.1,Calm,Calm,-,N/A,,Scattered Clouds,0,2012-10-06 08:30:00
11:00 AM,69.8,64.4,83,30.15,3.7,Calm,Calm,-,N/A,,Scattered Clouds,0,2012-10-06 09:00:00
11:30 AM,69.8,64.4,83,30.15,3.7,NNW,1.2,-,N/A,,Partly Cloudy,340,2012-10-06 09:30:00
12:00 PM,73.4,64.4,73,30.15,5.0,Calm,Calm,-,N/A,,Partly Cloudy,0,2012-10-06 10:00:00
12:30 PM,73.4,62.6,69,30.15,6.2,North,1.2,-,N/A,,Scattered Clouds,10,2012-10-06 10:30:00
1:00 PM,75.2,62.6,65,30.15,6.2,Calm,Calm,-,N/A,,Scattered Clouds,0,2012-10-06 11:00:00
1:30 PM,75.2,60.8,61,30.15,6.2,East,1.2,-,N/A,,Scattered Clouds,100,2012-10-06 11:30:00
2:00 PM,73.4,60.8,65,30.12,5.0,Variable,2.3,-,N/A,,Scattered Clouds,0,2012-10-06 12:00:00
2:30 PM,77.0,59.0,54,30.12,5.0,NW,3.5,-,N/A,,Scattered Clouds,310,2012-10-06 12:30:00
3:00 PM,78.8,59.0,51,30.12,5.0,WNW,1.2,-,N/A,,Scattered Clouds,300,2012-10-06 13:00:00
3:30 PM,78.8,59.0,51,30.12,5.0,NE,1.2,-,N/A,,Partly Cloudy,40,2012-10-06 13:30:00
4:00 PM,78.8,57.2,47,30.12,5.0,East,1.2,-,N/A,,Partly Cloudy,100,2012-10-06 14:00:00
4:30 PM,80.6,55.4,42,30.09,-9999.0,West,1.2,-,N/A,,Clear,280,2012-10-06 14:30:00
5:00 PM,80.6,55.4,42,30.09,-9999.0,Calm,Calm,-,N/A,,Clear,0,2012-10-06 15:00:00
5:30 PM,78.8,55.4,44,30.09,-9999.0,Variable,2.3,-,N/A,,Clear,0,2012-10-06 15:30:00
6:00 PM,80.6,53.6,39,30.09,-9999.0,Calm,Calm,-,N/A,,Clear,0,2012-10-06 16:00:00
6:30 PM,80.6,55.4,42,30.09,-9999.0,West,1.2,-,N/A,,Clear,280,2012-10-06 16:30:00
7:00 PM,80.6,55.4,42,30.09,-9999.0,Variable,1.2,-,N/A,,Clear,0,2012-10-06 17:00:00
7:30 PM,78.8,55.4,44,30.09,-9999.0,Variable,1.2,-,N/A,,Clear,0,2012-10-06 17:30:00
8:00 PM,77.0,55.4,47,30.09,-9999.0,SSE,1.2,-,N/A,,Clear,160,2012-10-06 18:00:00
8:30 PM,75.2,57.2,53,30.12,-9999.0,SSE,1.2,-,N/A,,Clear,150,2012-10-06 18:30:00
9:00 PM,73.4,57.2,57,30.12,-9999.0,South,1.2,-,N/A,,Clear,190,2012-10-06 19:00:00
9:30 PM,75.2,59.0,57,30.12,-9999.0,SW,8.1,-,N/A,,Clear,220,2012-10-06 19:30:00
10:00 PM,73.4,59.0,61,30.12,6.2,SW,3.5,-,N/A,,Partly Cloudy,230,2012-10-06 20:00:00
10:30 PM,73.4,59.0,61,30.12,6.2,Variable,1.2,-,N/A,,Partly Cloudy,0,2012-10-06 20:30:00
11:00 PM,71.6,59.0,64,30.15,-9999.0,WNW,3.5,-,N/A,,Clear,300,2012-10-06 21:00:00
11:30 PM,69.8,57.2,64,30.15,-9999.0,NW,3.5,-,N/A,,Clear,320,2012-10-06 21:30:00